Погода в Мирном

Россия / Республика Саха (Якутия)     62°32′27″N   113°58′43″E
темп.,
°C
ветер,
м/с
пор.,
м/с
влажн.,
%
обл.,
%
осадки,
мм/ч
давл.,
гПа
погр.,
м
3 марта, ср
ср300:00−35ссв2210098 0.0 102419
03:00−37ссв2210096 0.0 102419
06:00−38ссв2210072 0.0 102519
09:00−38с229980 0.0 102619
12:00−32с229292 0.0 1026283
15:00−29ссз238896 0.0 1025459
18:00−31сз2296100 0.0 102741
21:00−36сз229988 0.0 102919
4 марта, чт
чт400:00−38зсз22972 0.0 103019
03:00−39зсз22972 0.0 103123
06:00−39зсз24971 0.0 103276
09:00−39з37951 0.0 1034153
12:00−33з48927 0.0 1034327
15:00−29з488912 0.0 1034416
18:00−30з4108837 0.0 1035438
21:00−33з3109418 0.0 1036235
5 марта, пт
пт500:00−34з38950 0.0 1036168
03:00−35зюз36960 0.0 1036109
06:00−35зюз23970 0.0 103649
09:00−34юз25963 0.0 1034101
12:00−26ююз359132 0.0 1032259
15:00−23ю358959 0.0 1030348
18:00−22ююв259494 0.0 1028237
21:00−25ююв239697 0.0 102771
6 марта, сб
сб600:00−24юв239798 0.0 102595
03:00−24юв229999 0.1 102456
06:00−25вюв229998 0.0 102238
09:00−23вюв269999 0.1 1021219
12:00−19вюв3596100 0.0 1019311
15:00−16вюв3693100 0.1 1018435
18:00−16вюв3695100 0.1 1017418
21:00−18в3697100 0.2 1017243
7 марта, вс
вс700:00−21в2310098 0.1 101683
03:00−21в2310099 0.1 101679
06:00−20в3599100 0.1 1016134
09:00−19в3598100 0.3 1015158
12:00−15вюв2495100 0.2 1014237
15:00−9ююв2491100 0.3 1013461
18:00−8юв2296100 0.2 101185
21:00−11вюв2597100 0.3 1010106